Location: Cerezo de Arriba
(41.2389°N, 3.5585°W)
Time: 04:07:26
(UTC+00:00)

Cosmos 1821 Rocket - Pass Details

Date: 19 May 2025
Orbit: 943 x 1004 km, 82.9° (Epoch: 23 June)

Event Time Altitude Azimuth Distance (km) Brightness Sun altitude
Rises 22:14:55 0° 352° (N) 3,633 8.1 -23.1°
Reaches altitude 10° 22:17:26 10° 353° (N) 2,678 7.2 -23.4°
Maximum altitude 22:23:33 86° 82° (E) 952 3.8 -23.9°
Enters shadow 22:25:06 53° 168° (SSE) 1,143 3.9 -24.1°
